Content
SEND FEEDBACK

Daily
Averages
Monthly
Summary
United States of America

SEBREE, KENTUCKY


Home > North America > United States > Kentucky
Elevation: 36 feet     Latitude: 37 36N     Longitude: 087 32W

WEATHER
 
SELECT A DAY
Number of Records: 157,336;   Date Range: 1/1/95 - 12/27/14
 
SHARE

PRINT THIS DATA

[ ← Previous Day ]
WEATHER ALMANAC - MARCH 21, 2014
[ Next Day → ]
[ °C ]   °F
Weather ElementAverageHighLow
Temperature55.2 °F69.8 °F (1:55 pm)42.8 °F (12:35 am)
Dewpoint31.1 °F35.6 °F (11:35 pm)28.4 °F (12:35 am)
Humidity41.6 %57 % (12:35 am)24 % (4:15 pm)
Barometer29.95 in30.03 in (12:35 am)29.86 in (4:55 pm)
Wind Speed12.1 mph20.7 mph (3:15 pm)
Wind Gust27.6 mph (4:35 pm)
Weather ElementAverage
Visibility10 mi
Wind DirectionSSW (205.8 °)

Weather ElementTotal
Precipitation---
Heating Degree Days8.7 (Base 65)
Growing Degree Days6.3 (Base 50)
Averaged from 71 records on March 21, 2014
WEATHER CONDITIONS BREAKOUT
WIND DIRECTION BREAKOUT
WEATHER BY HOUR - MARCH 21, 2014
[ °C ]   °F
Local TimeTemperatureDewpointHumidityBarometerVisibilityWind DirectionWind SpeedGust SpeedPrecipitationEventsConditions
12:35 AM42.8 °F28.4 °F57 %30.03 in10.0 miSSW (200°)8.1 mphClear
12:55 AM44.6 °F30.2 °F57 %30.03 in10.0 miSSW (210°)9.2 mphClear
1:15 AM46.4 °F28.4 °F50 %30.03 in10.0 miSSW (210°)11.5 mphClear
1:35 AM46.4 °F28.4 °F50 %30.03 in10.0 miSSW (210°)11.5 mphClear
1:55 AM46.4 °F28.4 °F50 %30.02 in10.0 miSSW (200°)10.4 mphClear
2:15 AM44.6 °F28.4 °F53 %30.02 in10.0 miSouth (190°)9.2 mphClear
2:35 AM42.8 °F28.4 °F57 %30.02 in10.0 miSSW (200°)8.1 mphClear
2:55 AM42.8 °F28.4 °F57 %30.02 in10.0 miSSW (200°)6.9 mphClear
3:15 AM42.8 °F28.4 °F57 %30.01 in10.0 miSSW (210°)9.2 mphClear
3:35 AM42.8 °F28.4 °F57 %30.01 in10.0 miSSW (200°)8.1 mphClear
3:55 AM42.8 °F28.4 °F57 %30.00 in10.0 miSSW (200°)8.1 mphClear
4:15 AM42.8 °F28.4 °F57 %30.00 in10.0 miSouth (190°)5.8 mphClear
4:35 AM42.8 °F28.4 °F57 %30.00 in10.0 miSSW (200°)5.8 mphClear
4:55 AM42.8 °F28.4 °F57 %30.00 in10.0 miSSW (200°)6.9 mphClear
5:15 AM42.8 °F28.4 °F57 %30.00 in10.0 miSSW (200°)8.1 mphClear
5:35 AM42.8 °F28.4 °F57 %30.00 in10.0 miSSW (200°)9.2 mphClear
5:55 AM44.6 °F28.4 °F53 %30.00 in10.0 miSSW (200°)10.4 mphClear
6:15 AM44.6 °F28.4 °F53 %30.00 in10.0 miSouth (190°)8.1 mphClear
6:35 AM44.6 °F28.4 °F53 %30.00 in10.0 miSouth (190°)10.4 mphClear
6:55 AM44.6 °F28.4 °F53 %30.00 in10.0 miSouth (190°)10.4 mphClear
7:15 AM44.6 °F28.4 °F53 %30.01 in10.0 miSouth (180°)9.2 mphClear
7:35 AM46.4 °F28.4 °F50 %30.00 in10.0 miSouth (180°)10.4 mphClear
7:55 AM46.4 °F28.4 °F50 %30.01 in10.0 miSouth (180°)10.4 mphClear
8:15 AM48.2 °F30.2 °F50 %30.00 in10.0 miSouth (180°)11.5 mph16.1 mphClear
8:35 AM50.0 °F30.2 °F47 %30.00 in10.0 miSouth (190°)11.5 mphClear
8:55 AM51.8 °F30.2 °F44 %29.99 in10.0 miSouth (190°)9.2 mphClear
9:15 AM53.6 °F30.2 °F41 %30.00 in10.0 miSSW (200°)12.7 mphClear
9:35 AM55.4 °F30.2 °F38 %29.99 in10.0 miSSW (210°)11.5 mphClear
9:55 AM57.2 °F30.2 °F36 %29.99 in10.0 miSW (220°)13.8 mphClear
10:15 AM59.0 °F33.8 °F39 %30.00 in10.0 miSW (220°)13.8 mph19.6 mphClear
10:35 AM60.8 °F33.8 °F36 %30.00 in10.0 miSW (220°)13.8 mph18.4 mphClear
10:55 AM62.6 °F33.8 °F34 %29.99 in10.0 miSW (220°)18.4 mphClear
11:15 AM64.4 °F33.8 °F32 %29.99 in10.0 miSW (230°)17.3 mph23.0 mphClear
11:35 AM64.4 °F32.0 °F30 %29.99 in10.0 miSW (230°)16.1 mphClear
11:55 AM64.4 °F33.8 °F32 %29.98 in10.0 miSW (230°)16.1 mphClear
12:15 PM64.4 °F33.8 °F32 %29.98 in10.0 miSW (230°)18.4 mphClear
12:35 PM66.2 °F33.8 °F30 %29.97 in10.0 miSW (230°)19.6 mph24.2 mphClear
12:55 PM66.2 °F33.8 °F30 %29.96 in10.0 miSW (220°)18.4 mphClear
1:15 PM66.2 °F33.8 °F30 %29.95 in10.0 miSW (220°)13.8 mph20.7 mphClear
1:35 PM68.0 °F32.0 °F26 %29.94 in10.0 miSW (220°)18.4 mph25.3 mphClear
1:55 PM69.8 °F32.0 °F25 %29.93 in10.0 miSW (220°)16.1 mphClear
2:15 PM66.2 °F33.8 °F30 %29.92 in10.0 miSSW (200°)18.4 mph24.2 mphClear
2:35 PM64.4 °F33.8 °F32 %29.90 in10.0 miSSW (210°)16.1 mph21.9 mphClear
2:55 PM66.2 °F32.0 °F28 %29.89 in10.0 miSouth (190°)16.1 mph19.6 mphClear
3:15 PM66.2 °F30.2 °F26 %29.89 in10.0 miSouth (190°)20.7 mph25.3 mphClear
3:35 PM66.2 °F30.2 °F26 %29.88 in10.0 miSSW (200°)18.4 mph25.3 mphClear
3:55 PM69.8 °F32.0 °F25 %29.88 in10.0 miSSW (210°)17.3 mph23.0 mphClear
4:15 PM68.0 °F30.2 °F24 %29.87 in10.0 miSSW (210°)17.3 mph26.5 mphClear
4:35 PM66.2 °F28.4 °F24 %29.87 in10.0 miSSW (200°)15.0 mph27.6 mphClear
4:55 PM66.2 °F30.2 °F26 %29.86 in10.0 miSSW (210°)17.3 mph24.2 mphClear
5:15 PM66.2 °F30.2 °F26 %29.86 in10.0 miSSW (200°)19.6 mph25.3 mphClear
5:35 PM66.2 °F30.2 °F26 %29.87 in10.0 miSSW (200°)15.0 mph23.0 mphClear
5:55 PM64.4 °F30.2 °F28 %29.87 in10.0 miSSW (210°)12.7 mph16.1 mphClear
6:15 PM60.8 °F32.0 °F34 %29.87 in10.0 miSSW (210°)10.4 mphClear
6:35 PM57.2 °F30.2 °F36 %29.87 in10.0 miSSW (210°)12.7 mphClear
6:55 PM60.8 °F30.2 °F31 %29.87 in10.0 miSW (220°)13.8 mph19.6 mphClear
7:15 PM59.0 °F32.0 °F36 %29.87 in10.0 miSW (220°)10.4 mphClear
7:35 PM57.2 °F32.0 °F38 %29.87 in10.0 miSSW (200°)9.2 mphClear
7:55 PM57.2 °F32.0 °F38 %29.87 in10.0 miSSW (210°)8.1 mphClear
8:15 PM57.2 °F33.8 °F41 %29.88 in10.0 miSSW (210°)8.1 mphClear
8:35 PM55.4 °F33.8 °F44 %29.89 in10.0 miSSW (210°)8.1 mphClear
8:55 PM55.4 °F33.8 °F44 %29.88 in10.0 miSSW (200°)9.2 mphClear
9:15 PM55.4 °F33.8 °F44 %29.87 in10.0 miSouth (190°)9.2 mphClear
9:35 PM55.4 °F33.8 °F44 %29.87 in10.0 miSouth (180°)10.4 mphClear
9:55 PM55.4 °F33.8 °F44 %29.86 in10.0 miSouth (190°)10.4 mphClear
10:15 PM55.4 °F33.8 °F44 %29.88 in10.0 miSSW (200°)10.4 mphClear
10:35 PM55.4 °F33.8 °F44 %29.88 in10.0 miSSW (210°)11.5 mphClear
10:55 PM55.4 °F33.8 °F44 %29.88 in10.0 miSSW (210°)10.4 mphClear
11:15 PM55.4 °F33.8 °F44 %29.89 in10.0 miSW (220°)10.4 mphMostly Cloudy
11:35 PM53.6 °F35.6 °F51 %29.89 in10.0 miWSW (240°)9.2 mphMostly Cloudy
11:55 PM53.6 °F35.6 °F51 %29.90 in10.0 miWSW (240°)9.2 mphMostly Cloudy
Hourly data recorded from KEHR, located miles away from Sebree, Kentucky







STORIES FROM OUR PARTNERS